TimeCST,TemperatureF,Dew PointF,Humidity,Sea Level PressureIn,VisibilityMPH,Wind Direction,Wind SpeedMPH,Gust SpeedMPH,PrecipitationIn,Events,Conditions,WindDirDegrees,DateUTC
12:11 AM,-7.6,-22.0,50,30.18,10.0,NW,6.9,-,N/A,,Clear,310,2013-01-21 06:11:00
12:31 AM,-7.6,-22.0,50,30.17,10.0,NW,8.1,-,N/A,,Clear,310,2013-01-21 06:31:00
12:51 AM,-7.6,-23.8,45,30.17,10.0,WNW,8.1,-,N/A,,Clear,300,2013-01-21 06:51:00
1:11 AM,-9.4,-22.0,54,30.18,10.0,NW,6.9,-,N/A,,Scattered Clouds,310,2013-01-21 07:11:00
1:31 AM,-9.4,-23.8,49,30.18,10.0,NW,8.1,17.3,N/A,,Scattered Clouds,310,2013-01-21 07:31:00
1:51 AM,-9.4,-23.8,49,30.18,10.0,NW,6.9,-,N/A,,Scattered Clouds,320,2013-01-21 07:51:00
2:11 AM,-9.4,-23.8,49,30.18,10.0,NW,8.1,-,N/A,,Scattered Clouds,320,2013-01-21 08:11:00
2:31 AM,-9.4,-25.6,45,30.19,10.0,NW,9.2,-,N/A,,Clear,310,2013-01-21 08:31:00
3:12 AM,-11.2,-25.6,49,30.19,10.0,WNW,5.8,-,N/A,,Clear,300,2013-01-21 09:12:00
3:32 AM,-11.2,-25.6,49,30.18,10.0,WNW,5.8,-,N/A,,Clear,290,2013-01-21 09:32:00
3:51 AM,-13.0,-25.6,53,30.18,10.0,WNW,5.8,-,N/A,,Clear,290,2013-01-21 09:51:00
4:11 AM,-13.0,-27.4,49,30.19,10.0,WNW,11.5,19.6,N/A,,Scattered Clouds,290,2013-01-21 10:11:00
4:32 AM,-13.0,-27.4,49,30.19,10.0,NW,10.4,-,N/A,,Clear,310,2013-01-21 10:32:00
4:51 AM,-13.0,-27.4,49,30.18,10.0,WNW,10.4,-,N/A,,Scattered Clouds,300,2013-01-21 10:51:00
5:11 AM,-14.8,-27.4,53,30.18,10.0,WNW,6.9,-,N/A,,Clear,300,2013-01-21 11:11:00
5:51 AM,-14.8,-29.2,48,30.19,10.0,WNW,8.1,-,N/A,,Clear,290,2013-01-21 11:51:00
6:11 AM,-14.8,-29.2,48,30.19,10.0,WNW,9.2,-,N/A,,Clear,300,2013-01-21 12:11:00
6:31 AM,-14.8,-29.2,48,30.19,10.0,WNW,9.2,-,N/A,,Clear,300,2013-01-21 12:31:00
6:51 AM,-14.8,-29.2,48,30.20,10.0,WNW,9.2,-,N/A,,Clear,290,2013-01-21 12:51:00
7:11 AM,-14.8,-29.2,48,30.20,10.0,WNW,5.8,-,N/A,,Scattered Clouds,290,2013-01-21 13:11:00
7:32 AM,-14.8,-29.2,48,30.20,10.0,WNW,6.9,-,N/A,,Scattered Clouds,290,2013-01-21 13:32:00
7:52 AM,-16.6,-29.2,53,30.21,10.0,West,5.8,-,N/A,,Scattered Clouds,280,2013-01-21 13:52:00
8:11 AM,-16.6,-29.2,53,30.21,10.0,West,4.6,-,N/A,,Clear,270,2013-01-21 14:11:00
8:31 AM,-14.8,-27.4,53,30.21,10.0,WNW,3.5,-,N/A,,Clear,290,2013-01-21 14:31:00
8:51 AM,-14.8,-27.4,53,30.22,10.0,West,8.1,-,N/A,,Clear,280,2013-01-21 14:51:00
9:11 AM,-14.8,-27.4,53,30.22,10.0,WNW,9.2,-,N/A,,Clear,300,2013-01-21 15:11:00
9:31 AM,-13.0,-29.2,44,30.23,10.0,WNW,8.1,16.1,N/A,,Clear,300,2013-01-21 15:31:00
9:51 AM,-13.0,-31.0,40,30.23,10.0,WNW,10.4,18.4,N/A,,Scattered Clouds,300,2013-01-21 15:51:00
10:11 AM,-13.0,-29.2,44,30.23,10.0,WNW,10.4,-,N/A,,Scattered Clouds,290,2013-01-21 16:11:00
10:31 AM,-13.0,-29.2,44,30.23,7.0,NW,10.4,16.1,N/A,,Overcast,320,2013-01-21 16:31:00
10:51 AM,-11.2,-29.2,41,30.23,7.0,NW,9.2,17.3,N/A,,Overcast,310,2013-01-21 16:51:00
11:12 AM,-11.2,-29.2,41,30.22,7.0,NW,10.4,-,N/A,,Overcast,320,2013-01-21 17:12:00
11:31 AM,-9.4,-29.2,37,30.21,5.0,NW,12.7,17.3,N/A,,Haze,320,2013-01-21 17:31:00
11:51 AM,-9.4,-29.2,37,30.20,10.0,WNW,10.4,16.1,N/A,,Overcast,290,2013-01-21 17:51:00
12:11 PM,-9.4,-27.4,41,30.19,7.0,WNW,10.4,17.3,N/A,,Overcast,300,2013-01-21 18:11:00
12:31 PM,-7.6,-29.2,34,30.19,10.0,WNW,12.7,19.6,N/A,,Overcast,300,2013-01-21 18:31:00
12:51 PM,-7.6,-29.2,34,30.18,10.0,WNW,11.5,19.6,N/A,,Overcast,290,2013-01-21 18:51:00
1:11 PM,-7.6,-29.2,34,30.17,10.0,West,5.8,-,N/A,,Mostly Cloudy,280,2013-01-21 19:11:00
1:31 PM,-7.6,-27.4,38,30.16,10.0,NW,8.1,17.3,N/A,,Mostly Cloudy,310,2013-01-21 19:31:00
1:51 PM,-7.6,-27.4,38,30.16,7.0,WNW,10.4,-,N/A,,Overcast,290,2013-01-21 19:51:00
2:11 PM,-7.6,-27.4,38,30.16,10.0,West,10.4,17.3,N/A,,Overcast,270,2013-01-21 20:11:00
2:31 PM,-5.8,-27.4,35,30.16,10.0,West,10.4,-,N/A,,Mostly Cloudy,270,2013-01-21 20:31:00
2:52 PM,-5.8,-27.4,35,30.16,10.0,West,11.5,16.1,N/A,,Scattered Clouds,270,2013-01-21 20:52:00
3:11 PM,-5.8,-27.4,35,30.17,10.0,West,13.8,18.4,N/A,,Mostly Cloudy,280,2013-01-21 21:11:00
3:31 PM,-5.8,-25.6,38,30.16,10.0,West,9.2,-,N/A,,Overcast,280,2013-01-21 21:31:00
3:51 PM,-7.6,-25.6,41,30.16,10.0,WNW,10.4,-,N/A,,Mostly Cloudy,300,2013-01-21 21:51:00
4:12 PM,-5.8,-25.6,38,30.16,10.0,WNW,9.2,-,N/A,,Mostly Cloudy,290,2013-01-21 22:12:00
4:31 PM,-5.8,-25.6,38,30.17,10.0,West,8.1,-,N/A,,Mostly Cloudy,270,2013-01-21 22:31:00
4:51 PM,-7.6,-27.4,38,30.17,10.0,West,6.9,-,N/A,,Scattered Clouds,270,2013-01-21 22:51:00
5:12 PM,-7.6,-27.4,38,30.17,10.0,West,6.9,-,N/A,,Clear,270,2013-01-21 23:12:00
5:31 PM,-7.6,-27.4,38,30.17,10.0,West,4.6,-,N/A,,Clear,270,2013-01-21 23:31:00
5:51 PM,-9.4,-27.4,41,30.17,10.0,West,3.5,-,N/A,,Clear,270,2013-01-21 23:51:00
6:11 PM,-9.4,-27.4,41,30.17,10.0,West,3.5,-,N/A,,Clear,260,2013-01-22 00:11:00
6:32 PM,-9.4,-27.4,41,30.17,10.0,WSW,3.5,-,N/A,,Clear,240,2013-01-22 00:32:00
6:51 PM,-11.2,-27.4,45,30.17,10.0,SW,3.5,-,N/A,,Clear,230,2013-01-22 00:51:00
7:11 PM,-13.0,-27.4,49,30.18,10.0,Calm,Calm,-,N/A,,Clear,0,2013-01-22 01:11:00
7:31 PM,-13.0,-25.6,53,30.18,10.0,SW,3.5,-,N/A,,Clear,230,2013-01-22 01:31:00
7:51 PM,-13.0,-27.4,49,30.18,10.0,Calm,Calm,-,N/A,,Clear,0,2013-01-22 01:51:00
8:11 PM,-14.8,-27.4,53,30.18,10.0,Calm,Calm,-,N/A,,Clear,0,2013-01-22 02:11:00
8:31 PM,-16.6,-27.4,58,30.18,10.0,Calm,Calm,-,N/A,,Clear,0,2013-01-22 02:31:00
8:51 PM,-16.6,-25.6,64,30.18,10.0,WSW,3.5,-,N/A,,Clear,250,2013-01-22 02:51:00
9:11 PM,-14.8,-25.6,58,30.19,10.0,WSW,3.5,-,N/A,,Clear,240,2013-01-22 03:11:00
9:31 PM,-16.6,-27.4,58,30.20,10.0,WSW,3.5,-,N/A,,Clear,240,2013-01-22 03:31:00
9:51 PM,-18.4,-27.4,63,30.20,10.0,Calm,Calm,-,N/A,,Clear,0,2013-01-22 03:51:00
10:12 PM,-16.6,-25.6,64,30.20,10.0,Calm,Calm,-,N/A,,Clear,0,2013-01-22 04:12:00
10:32 PM,-18.4,-31.0,53,30.20,10.0,Calm,Calm,-,N/A,,Clear,0,2013-01-22 04:32:00
10:52 PM,-16.6,-27.4,58,30.20,10.0,WNW,3.5,-,N/A,,Clear,300,2013-01-22 04:52:00
11:11 PM,-16.6,-27.4,58,30.20,10.0,NW,3.5,-,N/A,,Clear,310,2013-01-22 05:11:00
11:31 PM,-14.8,-25.6,58,30.20,10.0,WNW,5.8,-,N/A,,Clear,300,2013-01-22 05:31:00
11:52 PM,-14.8,-25.6,58,30.20,10.0,NW,5.8,-,N/A,,Clear,310,2013-01-22 05:52:00